SCP
0 0 0 0 0 0 0 0 0 0 0 0 0 0 0 0 0 0 0 0 0 0 0 0 0 0 0 0 0 0 0 0 0 0 0 0 0 0 0 0 0 0 0 0
0 0 0 0 0 0 0 0 0 0 0 0 0 0 0 0 0 0 0 0 0 0 0 0 0 0 0 0 0 0 0 0 0 0 0 0 0 0 0 0 0 0 0 0
0 0 0 0 0 0 0 0 0 0 0 0 0 0 0 0 0 0 0 0 0 0 0 0 0 0 0 0 0 0 0 0 0 0 0 0 0 0 0 0 0 0 0 0
0 0 0 0 0 0 0 0 0 0 0 0 0 0 0 0 0 0 0 0 0 0 0 0 0 0 0 0 0 0 0 0 0 0 0 0 0 0 0 0 0 0 0 0
0 0 0 0 0 0 0 0 0 0 0 0 0 0 0 0 0 0 0 0 0 0 0 0 0 0 0 0 0 0 0 0 0 0 0 0 0 0 0 0 0 0 0 0
0 0 0 0 0 0 0 0 0 0 0 0 0 0 0 0 0 0 0 0 0 0 0 0 0 0 0 0 0 0 0 0 0 0 0 0 0 0 0 0 0 0 0 0
0 0 0 0 0 0 0 0 0 0 0 0 0 0 0 0 0 0 0 0 0 0 0 0 0 0 0 0 0 0 0 0 0 0 0 0 0 0 0 0 0 0 0 0
0 0 0 0 0 0 0 0 0 0 0 0 0 0 0 0 0 0 0 0 0 0 0 0 0 0 0 0 0 0 0 0 0 0 0 0 0 0 0 0 0 0 0 0
0 0 0 0 0 0 0 0 0 0 0 0 0 0 0 0 0 0 0 0 0 0 0 0 0 0 0 0 0 0 0 0 0 0 0 0 0 0 0 0 0 0 0 0
0 0 0 0 0 0 0 0 0 0 0 0 0 0 0 0 0 0 0 0 0 0 0 0 0 0 0 0 0 0 0 0 0 0 0 0 0 0 0 0 0 0 0 0
0 0 0 0 0 0 0 0 0 0 0 0 0 0 0 0 0 0 0 0 0 0 0 0 0 0 0 0 0 0 0 0 0 0 0 0 0 0 0 0 0 0 0 0
0 0 0 0 0 0 0 0 0 0 0 0 0 0 0 0 0 0 0 0 0 0 0 0 0 0 0 0 0 0 0 0 0 0 0 0 0 0 0 0 0 0 0 0
0 0 0 0 0 0 0 0 0 0 0 0 0 0 0 0 0 0 0 0 0 0 0 0 0 0 0 0 0 0 0 0 0 0 0 0 0 0 0 0 0 0 0 0
0 0 0 0 0 0 0 0 0 0 0 0 0 0 0 0 0 0 0 0 0 0 0 0 0 0 0 0 0 0 0 0 0 0 0 0 0 0 0 0 0 0 0 0
0 0 0 0 0 0 0 0 0 0 0 0 0 0 0 0 0 0 0 0 0 0 0 0 0 0 0 0 0 0 0 0 0 0 0 0 0 0 0 0 0 0 0 0
0 0 0 0 0 0 0 0 0 0 0 0 0 0 0 0 0 0 0 0 0 0 0 0 0 0 0 0 0 0 0 0 0 -0 0 0 0 0 0 0 0 0 0 0
0 0 0 0 0 0 0 0 0 0 0 0 0 0 0 0 0 0 0 0 0 0 0 0 0 0 0 0 0 0 0 0 0 0 0 0 0 0 0 0 0 0 0 0
0 0 0 0 0 0 0 0 0 0 0 0 0 0 0 0 0 0 0 0 0 0 0 0 0 0 0 0 0 -0 0 0 0 0 0 0 0 0 0 -0 0 0 0 0
0 0 0 0 0 0 0 0 0 0 0 0 0 0 0 0 0 0 0 0 0 0 0 0 0 0 0 0 0 0 0 0 0 0 0 0 0 0 0 0 0 0 0 0
0 0 0 0 0 0 0 0 0 0 0 0 0 0 0 0 0 0 0 0 0 0 0 0 0 0 0 0 0 0 0 0 0 0 0 0 0 0 0 0 0 0 0 0
0 0 0 0 0 0 0 0 0 0 0 0 0 0 0 0 0 0 0 0 0 0 0 0 0 0 0 0 0 0 0 0 0 0 0 0 0 -0 0 0 0 0 0 0
0 0 0 0 0 0 0 0 0 0 0 0 0 0 0 0 0 0 0 0 0 -0 -0 0 -0 -0 -0 0 0 0 0 0 0 0 0 0 0 0 0 -0 -0 -0 0 0
0 0 0 0 0 0 0 0 0 0 0 0 0 0 0 0 0 0 0 0 -0 -0 -0 -0 -0 -0 -0 -0 0 0 0 0 0 0 0 0 0 0 0 0 0 0 0 0
0 0 0 0 0 0 0 0 0 0 0 0 0 0 0 0 0 0 0 -0 -0 -0 -0 -0 -0 -0 -0 -0 0 0 0 0 0 0 0 0 0 0 0 0 0 0 0 0
0 0 0 0 0 0 0 0 0 0 0 0 0 0 0 0 0 -0 -0 -0 -0 -0 -0 -0 -0 -0 -0 -0 0 0 0 0 0 0 0 0 0 0 0 0 0 0 0 0
0 0 0 0 0 0 0 0 0 0 0 0 0 0 0 0 0 -0 -0 -0 -0 -0 -0 0 0 0 0 0 0 0 0 0 0 0 0 0 0 0 0 0 0 0 0 0
Wind_Speed
4 4 3 6 6 4 2 2 4 7 4 0 2 2 0 2 4 5 6 5 7 8 2 4 5 6 7 6 5 5 6 5 4 3 2 3 3 3 4 4 5 6 6 6
5 4 8 4 3 4 3 3 4 4 4 2 2 4 4 4 4 3 3 3 4 2 3 5 7 7 8 8 8 8 7 5 4 3 3 3 4 3 2 1 3 4 4 4
5 7 1 3 2 3 4 6 4 3 2 7 4 6 6 8 10 11 10 8 8 6 6 7 9 9 9 9 9 8 8 7 6 5 4 3 3 2 2 2 2 3 3 3
5 6 2 3 4 7 3 3 4 4 5 4 4 1 4 5 9 11 11 11 11 11 11 11 11 12 12 10 9 10 9 8 6 5 6 5 3 1 0 1 1 2 3 3
5 3 1 2 3 7 6 4 4 4 5 4 5 2 6 8 9 9 9 10 10 11 13 14 13 12 11 9 8 7 7 6 4 4 5 5 3 0 1 2 3 4 4 4
5 2 1 1 3 4 8 8 8 7 6 3 1 1 4 6 6 3 7 9 10 11 12 13 11 11 9 7 6 5 6 5 5 5 4 3 2 1 3 4 4 4 3 4
1 2 3 1 5 5 6 8 5 6 4 3 1 4 2 6 6 3 4 6 8 8 9 9 9 8 6 5 5 5 5 5 4 4 4 4 3 3 3 3 4 5 5 5
5 3 3 2 4 6 4 9 9 6 5 4 3 3 2 3 5 5 5 6 7 7 6 7 6 6 5 5 5 4 4 4 4 4 5 5 6 4 3 4 4 5 5 6
8 5 1 3 2 8 6 3 6 8 3 1 0 3 2 4 6 5 6 6 6 5 6 6 5 5 5 5 5 4 4 5 7 7 7 7 7 6 5 5 5 5 6 7
9 5 2 1 6 6 5 9 6 7 7 4 3 5 6 2 1 2 4 4 5 5 5 5 5 6 5 5 6 7 7 6 5 6 6 6 5 5 5 5 6 7 7 7
4 8 1 4 3 2 4 4 5 5 5 7 5 6 2 3 2 1 2 3 4 5 5 5 5 5 6 6 6 6 6 6 6 6 6 6 6 6 6 6 7 8 8 9
4 7 5 3 3 3 6 4 6 6 4 4 5 5 0 2 1 2 2 2 2 3 3 4 4 4 5 5 5 5 6 6 6 6 7 8 8 8 8 9 9 9 10 10
6 9 7 1 2 5 6 4 4 5 6 4 5 4 3 3 3 2 2 1 2 3 4 4 3 4 5 5 6 6 7 7 7 7 8 8 8 9 9 10 10 9 10 11
7 6 6 9 6 5 4 3 3 5 4 3 5 6 5 3 2 1 1 2 3 4 5 4 4 5 5 6 7 8 8 7 8 9 9 9 9 9 10 10 9 10 10 11
7 7 5 5 5 5 4 2 2 2 5 6 3 7 6 5 3 2 2 3 5 7 7 6 5 4 5 6 7 7 8 8 9 10 10 10 10 9 9 9 9 10 10 9
6 7 5 4 3 5 5 4 5 3 3 5 7 3 2 2 1 2 4 5 6 8 8 7 4 5 6 8 9 10 10 10 10 10 11 11 10 10 10 10 10 9 8 7
5 7 6 3 1 4 1 1 3 3 2 6 6 6 4 2 2 3 4 6 7 8 8 6 4 5 7 7 8 10 10 11 11 11 11 11 10 11 11 10 9 7 6 7
8 6 5 5 3 5 3 2 6 7 3 2 5 5 5 4 3 4 5 6 8 7 5 3 5 6 6 6 8 9 10 11 11 11 11 11 10 10 9 8 7 7 6 8
5 9 6 5 5 3 2 2 5 6 1 1 5 4 4 2 3 6 6 5 5 3 2 2 2 4 6 8 9 10 11 10 10 10 10 10 9 8 8 8 8 7 7 8
7 6 7 5 6 8 7 5 5 6 2 5 5 6 4 3 1 6 5 1 1 3 2 1 3 4 6 7 8 9 10 10 10 10 10 9 8 8 8 8 8 6 5 6
4 5 5 5 3 3 3 5 6 4 6 7 7 6 5 6 8 5 1 3 2 1 0 2 4 5 6 7 7 9 9 10 10 9 8 8 8 8 7 7 6 6 6 7
6 6 5 5 4 5 5 6 7 6 4 5 5 5 5 6 6 2 2 3 2 1 2 3 4 5 6 6 6 8 9 10 9 7 7 8 8 8 7 7 7 7 7 7
2 5 6 5 5 2 6 6 5 5 5 5 5 5 4 4 2 1 2 1 1 1 3 3 4 6 6 5 4 7 9 9 8 6 7 6 7 7 7 7 7 6 6 6
2 2 5 4 2 3 3 3 4 5 5 5 4 3 1 1 2 3 2 0 1 2 2 3 4 5 5 5 5 6 8 8 7 6 6 5 6 7 7 6 5 5 6 6
3 3 5 4 2 4 2 3 4 4 4 3 4 3 3 4 3 2 1 0 1 2 2 3 3 4 5 6 8 8 7 7 6 6 5 5 5 5 6 6 4 5 3 4
1 4 6 5 6 6 4 2 3 5 5 5 6 4 3 3 3 2 1 1 1 2 2 3 3 4 6 7 9 9 7 6 5 4 4 3 4 4 5 5 5 6 6 9
Wind_Direction
37 65 246 233 197 199 189 234 280 275 296 193 220 289 316 157 170 211 239 248 248 253 260 137 125 106 94 80 69 50 51 54 69 76 84 84 76 71 62 58 55 54 50 44
36 275 244 227 195 190 196 232 254 280 352 79 75 6 2 42 30 356 329 334 327 333 63 96 101 95 98 94 86 81 78 73 75 92 97 102 116 106 113 89 61 54 56 49
198 240 213 192 203 184 193 186 194 192 45 31 56 7 25 18 16 24 30 33 26 46 65 69 74 75 79 79 86 92 90 87 89 105 105 98 87 67 37 17 15 6 17 25
226 257 243 236 217 156 196 199 144 115 88 10 47 1 339 11 29 23 23 30 32 39 55 62 68 69 73 79 87 93 97 99 107 114 111 113 110 104 305 294 303 327 356 358
233 241 217 222 222 166 169 75 78 81 99 58 33 81 311 14 22 15 14 29 35 43 61 67 69 75 77 79 84 89 90 81 66 64 79 87 82 86 289 313 338 344 340 334
240 277 174 200 63 107 116 72 49 45 65 81 70 140 310 354 324 7 16 30 41 51 61 64 63 67 67 63 67 71 76 59 34 41 46 67 72 353 343 344 337 329 316 309
271 345 350 91 103 51 84 89 43 17 30 237 348 108 316 315 336 74 79 61 51 51 61 66 64 63 64 61 53 49 60 48 31 39 37 35 32 18 351 335 324 319 314 309
170 255 308 6 158 147 145 136 153 178 192 266 24 94 293 352 30 51 64 70 65 57 60 62 54 46 37 35 33 39 53 48 34 32 27 31 31 23 2 344 323 309 301 299
171 208 298 29 64 122 123 108 143 123 145 160 203 130 161 59 39 38 50 55 48 40 39 39 30 25 24 31 32 31 34 32 26 25 29 33 23 9 344 324 308 301 299 303
152 169 246 346 63 27 115 132 101 119 145 210 226 191 195 177 54 30 31 34 28 25 30 26 20 19 22 31 31 32 37 39 30 25 18 5 350 337 323 314 311 305 297 294
129 139 111 37 55 153 97 78 101 114 150 162 206 242 198 178 191 133 38 34 35 29 21 17 17 21 29 35 36 33 24 14 6 360 354 349 340 333 323 309 303 301 295 293
112 112 94 35 344 38 99 121 138 146 196 170 176 227 143 120 99 118 99 84 47 24 12 13 17 24 30 26 19 14 6 1 352 345 343 337 329 323 313 301 295 296 297 295
129 112 107 70 320 22 52 53 97 103 102 136 162 228 152 99 90 111 133 132 345 349 352 352 357 4 6 2 359 358 356 349 341 337 330 320 311 306 303 298 294 297 300 300
104 92 139 176 192 140 101 60 92 104 126 176 197 170 172 153 157 181 228 298 316 321 326 335 344 350 352 350 349 346 343 338 330 323 314 307 302 300 301 300 298 302 305 305
89 96 83 72 85 102 116 151 163 153 173 179 206 163 177 176 191 226 283 322 330 330 329 333 340 341 341 340 339 338 331 326 321 316 313 309 305 303 305 307 308 310 313 316
72 105 103 73 71 106 94 87 105 88 103 104 99 105 154 158 170 306 316 317 310 304 304 308 324 345 342 339 335 333 327 324 322 319 317 316 316 318 318 316 315 316 317 320
80 104 100 125 103 85 98 309 145 116 100 139 157 181 166 169 239 265 267 260 264 273 282 295 338 354 340 330 324 320 318 320 322 318 317 318 320 320 319 321 325 324 323 323
109 91 100 122 127 193 267 350 125 103 61 109 134 155 175 199 245 268 251 244 259 273 294 345 6 343 324 313 313 313 315 318 318 316 317 320 323 323 327 333 339 336 327 325
107 120 114 123 144 141 184 164 141 119 135 186 154 184 216 242 348 300 269 244 253 288 17 38 345 310 309 312 316 319 318 318 318 321 326 330 334 336 339 344 340 332 330 335
55 89 111 128 149 203 206 172 155 109 159 232 194 206 217 137 226 270 282 304 64 73 72 347 307 308 309 311 319 322 323 324 327 331 334 337 344 346 346 340 333 334 342 346
92 74 104 130 156 227 173 139 132 149 211 206 200 213 206 197 218 246 33 87 97 96 190 301 313 306 302 312 326 329 330 333 332 333 338 345 353 352 352 346 347 355 358 355
153 140 147 137 155 216 174 139 164 186 178 172 191 208 212 232 258 279 115 121 95 44 327 318 308 301 304 319 332 331 331 328 328 338 352 357 2 6 3 3 2 4 3 358
155 173 162 161 189 190 160 169 179 148 150 178 189 202 212 237 253 139 131 117 38 333 303 297 298 306 311 321 329 322 319 325 330 346 2 3 5 7 5 8 2 357 1 3
113 109 103 93 89 125 157 133 129 158 177 190 185 182 171 164 119 129 132 105 324 305 303 313 318 320 317 319 319 307 308 318 332 348 356 1 6 3 2 2 0 3 2 359
144 107 95 101 132 108 124 140 149 170 175 140 102 87 101 121 131 148 157 274 295 306 325 328 325 319 316 320 316 309 309 319 331 339 346 352 357 360 358 356 355 1 359 358
186 143 140 183 192 159 184 176 165 172 178 155 128 102 92 122 143 138 138 314 312 333 342 340 339 334 323 317 309 308 307 306 309 317 324 332 339 351 357 349 350 17 28 23